timestamp,wind_dir_avg,wind_spd_max_dir,wind_spd_avg,wind_spd_gust,battery_voltage,lat,long
2017-12-03 00:00:00+00:00,359.0,0.0,5.22,5.75,,47.59359,-54.27349
2017-12-03 00:10:00+00:00,5.0,2.0,4.89,5.53,,47.59359,-54.27349
2017-12-03 00:20:00+00:00,11.0,16.0,4.57,5.38,,47.59359,-54.27349
2017-12-03 00:30:00+00:00,14.0,10.0,4.6,5.24,,47.59359,-54.27349
2017-12-03 00:40:00+00:00,7.0,7.0,4.45,4.96,,47.59359,-54.27349
2017-12-03 00:50:00+00:00,8.0,13.0,4.47,4.96,,47.59359,-54.27349
2017-12-03 01:00:00+00:00,14.0,19.0,3.7,4.42,,47.59359,-54.27349
2017-12-03 01:10:00+00:00,8.0,13.0,4.41,4.74,,47.59359,-54.27349
2017-12-03 01:20:00+00:00,4.0,11.0,4.22,4.68,,47.59359,-54.27349
2017-12-03 01:30:00+00:00,4.0,3.0,4.36,4.97,,47.59359,-54.27349
2017-12-03 01:40:00+00:00,353.0,357.0,3.85,4.4,,47.59359,-54.27349
2017-12-03 01:50:00+00:00,351.0,358.0,3.98,4.62,,47.59359,-54.27349
2017-12-03 02:00:00+00:00,338.0,342.0,3.42,4.01,,47.59359,-54.27349
2017-12-03 02:10:00+00:00,350.0,347.0,3.7,4.41,,47.59359,-54.27349
2017-12-03 02:20:00+00:00,2.0,7.0,4.24,4.65,,47.59359,-54.27349
2017-12-03 02:30:00+00:00,11.0,11.0,4.03,4.66,,47.59359,-54.27349
2017-12-03 02:40:00+00:00,3.0,1.0,4.16,4.54,,47.59359,-54.27349
2017-12-03 02:50:00+00:00,351.0,355.0,4.38,4.8,,47.59359,-54.27349
2017-12-03 03:00:00+00:00,5.0,5.0,4.34,4.75,,47.59359,-54.27349
2017-12-03 03:10:00+00:00,355.0,350.0,4.62,5.16,,47.59359,-54.27349
2017-12-03 03:20:00+00:00,3.0,7.0,4.3,4.78,,47.59359,-54.27349
2017-12-03 03:30:00+00:00,8.0,2.0,4.29,4.86,,47.59359,-54.27349
2017-12-03 03:40:00+00:00,7.0,5.0,4.98,5.56,,47.59359,-54.27349
2017-12-03 03:50:00+00:00,8.0,12.0,5.12,6.24,,47.59359,-54.27349
2017-12-03 04:00:00+00:00,19.0,18.0,5.01,5.56,,47.59359,-54.27349
2017-12-03 04:10:00+00:00,24.0,18.0,4.81,5.84,,47.59359,-54.27349
2017-12-03 04:20:00+00:00,24.0,31.0,4.33,5.17,,47.59359,-54.27349
2017-12-03 04:30:00+00:00,34.0,38.0,4.35,4.87,,47.59359,-54.27349
2017-12-03 04:40:00+00:00,28.0,32.0,3.64,4.52,,47.59359,-54.27349
2017-12-03 04:50:00+00:00,31.0,36.0,3.81,4.73,,47.59359,-54.27349
2017-12-03 05:00:00+00:00,35.0,32.0,4.31,4.79,,47.59359,-54.27349
2017-12-03 05:10:00+00:00,35.0,28.0,4.44,4.92,,47.59359,-54.27349
2017-12-03 05:20:00+00:00,35.0,31.0,4.4,5.26,,47.59359,-54.27349
2017-12-03 05:30:00+00:00,16.0,6.0,4.05,4.91,,47.59359,-54.27349
2017-12-03 05:40:00+00:00,10.0,13.0,5.14,5.77,,47.59359,-54.27349
2017-12-03 05:50:00+00:00,3.0,4.0,5.57,6.29,,47.59359,-54.27349
2017-12-03 06:00:00+00:00,2.0,1.0,5.23,6.15,,47.59359,-54.27349
2017-12-03 06:10:00+00:00,2.0,6.0,5.46,6.19,,47.59359,-54.27349
2017-12-03 06:20:00+00:00,7.0,6.0,5.68,6.71,,47.59359,-54.27349
2017-12-03 06:30:00+00:00,9.0,2.0,6.02,7.15,,47.59359,-54.27349
2017-12-03 06:40:00+00:00,7.0,6.0,5.83,6.7,,47.59359,-54.27349
2017-12-03 06:50:00+00:00,9.0,4.0,6.19,8.18,,47.59359,-54.27349
2017-12-03 07:00:00+00:00,2.0,2.0,6.57,7.57,,47.59359,-54.27349
2017-12-03 07:10:00+00:00,359.0,357.0,6.81,7.41,,47.59359,-54.27349
2017-12-03 07:20:00+00:00,7.0,10.0,5.95,7.12,,47.59359,-54.27349
2017-12-03 07:30:00+00:00,24.0,35.0,5.48,6.82,,47.59359,-54.27349
2017-12-03 07:40:00+00:00,43.0,37.0,5.33,6.15,,47.59359,-54.27349
2017-12-03 07:50:00+00:00,34.0,37.0,5.91,7.12,,47.59359,-54.27349
2017-12-03 08:00:00+00:00,29.0,32.0,5.54,6.24,,47.59359,-54.27349
2017-12-03 08:10:00+00:00,46.0,44.0,6.89,7.61,,47.59359,-54.27349
2017-12-03 08:20:00+00:00,47.0,51.0,7.11,7.69,,47.59359,-54.27349
2017-12-03 08:30:00+00:00,45.0,46.0,6.86,7.93,,47.59359,-54.27349
2017-12-03 08:40:00+00:00,37.0,38.0,6.71,7.7,,47.59359,-54.27349
2017-12-03 08:50:00+00:00,32.0,31.0,7.19,8.66,,47.59359,-54.27349
2017-12-03 09:00:00+00:00,43.0,35.0,8.19,9.74,,47.59359,-54.27349
2017-12-03 09:10:00+00:00,46.0,48.0,7.97,9.14,,47.59359,-54.27349
2017-12-03 09:20:00+00:00,68.0,73.0,7.94,11.07,,47.59359,-54.27349
2017-12-03 09:30:00+00:00,50.0,51.0,7.17,9.07,,47.59359,-54.27349
2017-12-03 09:40:00+00:00,41.0,45.0,8.04,9.35,,47.59359,-54.27349
2017-12-03 09:50:00+00:00,43.0,41.0,7.7,8.61,,47.59359,-54.27349
2017-12-03 10:00:00+00:00,45.0,52.0,8.3,9.17,,47.59359,-54.27349
2017-12-03 10:10:00+00:00,46.0,45.0,8.23,9.3,,47.59359,-54.27349
2017-12-03 10:20:00+00:00,49.0,58.0,8.44,16.09,,47.59359,-54.27349
2017-12-03 10:30:00+00:00,36.0,33.0,8.71,10.37,,47.59359,-54.27349
2017-12-03 10:40:00+00:00,44.0,35.0,8.43,10.28,,47.59359,-54.27349
2017-12-03 10:50:00+00:00,44.0,50.0,8.94,10.48,,47.59359,-54.27349
2017-12-03 11:00:00+00:00,35.0,35.0,8.14,9.82,,47.59359,-54.27349
2017-12-03 11:10:00+00:00,38.0,33.0,6.89,8.27,,47.59359,-54.27349
2017-12-03 11:20:00+00:00,41.0,35.0,8.4,11.94,,47.59359,-54.27349
2017-12-03 11:30:00+00:00,36.0,45.0,7.82,9.13,,47.59359,-54.27349
2017-12-03 11:40:00+00:00,42.0,37.0,8.7,10.27,,47.59359,-54.27349
2017-12-03 11:50:00+00:00,43.0,38.0,9.09,11.1,,47.59359,-54.27349
2017-12-03 12:00:00+00:00,34.0,38.0,9.75,11.15,,47.59359,-54.27349
2017-12-03 12:10:00+00:00,43.0,52.0,8.78,10.95,,47.59359,-54.27349
2017-12-03 12:20:00+00:00,29.0,32.0,8.94,11.28,,47.59359,-54.27349
2017-12-03 12:30:00+00:00,47.0,42.0,8.99,11.1,,47.59359,-54.27349
2017-12-03 12:40:00+00:00,32.0,34.0,9.06,10.58,,47.59359,-54.27349
2017-12-03 12:50:00+00:00,35.0,35.0,9.28,10.31,,47.59359,-54.27349
2017-12-03 13:00:00+00:00,38.0,52.0,9.92,14.2,,47.59359,-54.27349
2017-12-03 13:10:00+00:00,44.0,53.0,8.72,10.06,,47.59359,-54.27349
2017-12-03 13:20:00+00:00,37.0,43.0,8.03,9.31,,47.59359,-54.27349
2017-12-03 13:30:00+00:00,51.0,54.0,9.02,11.34,,47.59359,-54.27349
2017-12-03 13:40:00+00:00,48.0,59.0,9.7,12.23,,47.59359,-54.27349
2017-12-03 13:50:00+00:00,73.0,75.0,10.91,14.08,,47.59359,-54.27349
2017-12-03 14:00:00+00:00,69.0,71.0,8.99,13.76,,47.59359,-54.27349
2017-12-03 14:10:00+00:00,52.0,58.0,9.45,13.4,,47.59359,-54.27349
2017-12-03 14:20:00+00:00,59.0,58.0,8.66,10.08,,47.59359,-54.27349
2017-12-03 14:30:00+00:00,52.0,57.0,7.02,7.92,,47.59359,-54.27349
2017-12-03 14:40:00+00:00,70.0,72.0,7.79,8.66,,47.59359,-54.27349
2017-12-03 14:50:00+00:00,56.0,74.0,9.59,15.0,,47.59359,-54.27349
2017-12-03 15:00:00+00:00,52.0,54.0,8.55,10.32,,47.59359,-54.27349
2017-12-03 15:10:00+00:00,43.0,54.0,8.76,10.62,,47.59359,-54.27349
2017-12-03 15:20:00+00:00,60.0,59.0,7.98,9.01,,47.59359,-54.27349
2017-12-03 15:30:00+00:00,46.0,48.0,8.6,9.91,,47.59359,-54.27349
2017-12-03 15:40:00+00:00,46.0,53.0,9.16,11.79,,47.59359,-54.27349
2017-12-03 15:50:00+00:00,51.0,55.0,9.09,11.09,,47.59359,-54.27349
2017-12-03 16:00:00+00:00,55.0,56.0,8.54,10.5,,47.59359,-54.27349
2017-12-03 16:10:00+00:00,59.0,62.0,8.69,10.61,,47.59359,-54.27349
2017-12-03 16:20:00+00:00,55.0,56.0,12.09,15.23,,47.59359,-54.27349
2017-12-03 16:30:00+00:00,64.0,60.0,8.39,9.46,,47.59359,-54.27349
2017-12-03 16:40:00+00:00,65.0,65.0,8.03,9.14,,47.59359,-54.27349
2017-12-03 16:50:00+00:00,69.0,67.0,7.39,8.31,,47.59359,-54.27349
2017-12-03 17:00:00+00:00,53.0,59.0,9.62,14.57,,47.59359,-54.27349
2017-12-03 17:10:00+00:00,72.0,77.0,8.52,14.04,,47.59359,-54.27349
2017-12-03 17:20:00+00:00,61.0,64.0,10.87,14.1,,47.59359,-54.27349
2017-12-03 17:30:00+00:00,56.0,66.0,9.93,13.81,,47.59359,-54.27349
2017-12-03 17:40:00+00:00,58.0,64.0,9.03,10.47,,47.59359,-54.27349
2017-12-03 17:50:00+00:00,57.0,61.0,9.36,12.11,,47.59359,-54.27349
2017-12-03 18:00:00+00:00,63.0,72.0,10.23,15.52,,47.59359,-54.27349
2017-12-03 18:10:00+00:00,64.0,71.0,11.02,14.89,,47.59359,-54.27349
2017-12-03 18:20:00+00:00,63.0,66.0,8.96,10.94,,47.59359,-54.27349
2017-12-03 18:30:00+00:00,78.0,79.0,15.06,16.07,,47.59359,-54.27349
2017-12-03 18:40:00+00:00,77.0,81.0,12.12,16.26,,47.59359,-54.27349
2017-12-03 18:50:00+00:00,72.0,78.0,13.1,15.57,,47.59359,-54.27349
2017-12-03 19:00:00+00:00,78.0,81.0,13.53,15.74,,47.59359,-54.27349
2017-12-03 19:10:00+00:00,76.0,78.0,11.12,15.29,,47.59359,-54.27349
2017-12-03 19:20:00+00:00,59.0,69.0,11.52,17.0,,47.59359,-54.27349
2017-12-03 19:30:00+00:00,60.0,69.0,11.96,16.72,,47.59359,-54.27349
2017-12-03 19:40:00+00:00,66.0,69.0,11.53,15.97,,47.59359,-54.27349
2017-12-03 19:50:00+00:00,55.0,60.0,12.19,15.36,,47.59359,-54.27349
2017-12-03 20:00:00+00:00,59.0,60.0,10.41,12.14,,47.59359,-54.27349
2017-12-03 20:10:00+00:00,74.0,74.0,13.9,16.41,,47.59359,-54.27349
2017-12-03 20:20:00+00:00,54.0,59.0,11.48,14.8,,47.59359,-54.27349
2017-12-03 20:30:00+00:00,64.0,71.0,8.24,11.6,,47.59359,-54.27349
2017-12-03 20:40:00+00:00,55.0,61.0,13.71,16.9,,47.59359,-54.27349
2017-12-03 20:50:00+00:00,72.0,74.0,12.05,15.27,,47.59359,-54.27349
2017-12-03 21:00:00+00:00,54.0,59.0,13.55,16.82,,47.59359,-54.27349
2017-12-03 21:10:00+00:00,45.0,54.0,10.04,12.13,,47.59359,-54.27349
2017-12-03 21:20:00+00:00,52.0,59.0,12.64,15.59,,47.59359,-54.27349
2017-12-03 21:30:00+00:00,54.0,64.0,11.55,15.2,,47.59359,-54.27349
2017-12-03 21:40:00+00:00,50.0,58.0,12.43,15.61,,47.59359,-54.27349
2017-12-03 21:50:00+00:00,57.0,70.0,12.61,15.71,,47.59359,-54.27349
2017-12-03 22:00:00+00:00,52.0,59.0,11.43,13.85,,47.59359,-54.27349
2017-12-03 22:10:00+00:00,49.0,58.0,11.31,15.1,,47.59359,-54.27349
2017-12-03 22:20:00+00:00,53.0,57.0,10.43,14.26,,47.59359,-54.27349
2017-12-03 22:30:00+00:00,73.0,73.0,12.83,15.14,,47.59359,-54.27349
2017-12-03 22:40:00+00:00,56.0,54.0,8.95,9.97,,47.59359,-54.27349
2017-12-03 22:50:00+00:00,62.0,65.0,10.0,14.98,,47.59359,-54.27349
2017-12-03 23:00:00+00:00,68.0,73.0,11.21,16.29,,47.59359,-54.27349
2017-12-03 23:10:00+00:00,67.0,67.0,13.58,17.01,,47.59359,-54.27349
2017-12-03 23:20:00+00:00,65.0,70.0,11.88,17.86,,47.59359,-54.27349
2017-12-03 23:30:00+00:00,62.0,64.0,14.2,16.49,,47.59359,-54.27349
2017-12-03 23:40:00+00:00,59.0,63.0,11.03,14.93,,47.59359,-54.27349
2017-12-03 23:50:00+00:00,60.0,70.0,12.69,16.1,,47.59359,-54.27349
